This is the latest recevied weather packets stored in our database for station/object KC1HBM. If no packets are shown the sender has not sent any weather packets the latest 10 day(s).
| Time | Temp. | Humidity | Pressure | Rain* | Wind** | Luminosity | Snow |
|---|---|---|---|---|---|---|---|
| 1778072885 | 12.78° C | 92% | 1006.8 hPa | 0 mm | - | 105 W/m² | - |
| 1778072581 | 12.78° C | 92% | 1006.8 hPa | 0 mm | - | 162 W/m² | - |
| 1778072279 | 12.78° C | 92% | 1006.8 hPa | 0 mm | - | 77 W/m² | - |
| 1778071977 | 12.78° C | 92% | 1006.8 hPa | 0 mm | - | 160 W/m² | - |
| 1778071675 | 12.78° C | 92% | 1006.9 hPa | 0 mm | - | 111 W/m² | - |
| 1778071372 | 12.78° C | 92% | 1006.9 hPa | 0 mm | - | 92 W/m² | - |
| 1778071070 | 12.78° C | 92% | 1006.8 hPa | 0 mm | - | 92 W/m² | - |
| 1778070768 | 12.78° C | 91% | 1006.7 hPa | 0 mm | - | 93 W/m² | - |
| 1778070465 | 12.78° C | 92% | 1006.8 hPa | 0 mm | - | 124 W/m² | - |
| 1778070162 | 12.78° C | 91% | 1006.8 hPa | 0 mm | - | 122 W/m² | - |
| 1778069860 | 12.78° C | 91% | 1007 hPa | 0 mm | - | 86 W/m² | - |
| 1778069556 | 12.78° C | 91% | 1006.9 hPa | 0 mm | - | 64 W/m² | - |
| 1778069253 | 12.78° C | 91% | 1007.3 hPa | 0 mm | - | 55 W/m² | - |
| 1778068951 | 12.78° C | 91% | 1007.1 hPa | 0 mm | - | 60 W/m² | - |
| 1778068649 | 12.78° C | 92% | 1006.9 hPa | 0 mm | - | 82 W/m² | - |
| 1778068347 | 12.78° C | 92% | 1007.1 hPa | 0 mm | - | 74 W/m² | - |
| 1778068045 | 12.78° C | 91% | 1007.2 hPa | 0 mm | - | 40 W/m² | - |
| 1778067742 | 12.78° C | 92% | 1007.2 hPa | 0 mm | - | 46 W/m² | - |
| 1778067440 | 12.78° C | 92% | 1007.4 hPa | 0 mm | - | 55 W/m² | - |
| 1778067137 | 12.78° C | 92% | 1007.4 hPa | 0 mm | - | 48 W/m² | - |
| 1778066833 | 12.22° C | 92% | 1007.4 hPa | 0 mm | - | 55 W/m² | - |
| 1778066532 | 12.22° C | 92% | 1007.5 hPa | 0 mm | - | 43 W/m² | - |
| 1778066229 | 12.78° C | 92% | 1007.2 hPa | 0 mm | - | 27 W/m² | - |
| 1778065927 | 12.22° C | 92% | 1007.4 hPa | 0 mm | - | 34 W/m² | - |
| 1778065623 | 12.22° C | 92% | 1007.2 hPa | 0 mm | - | 58 W/m² | - |
* Rain latest hour (hover to see other rain measurements)
** Current wind speed in m/s (hover to see current wind gust speed)